date,time,water_lv
2017-04-01,00:00:00,151.44
2017-04-01,00:10:00,151.85
2017-04-01,00:20:00,151.46
2017-04-01,00:30:00,151.46
2017-04-01,00:40:00,151.46
2017-04-01,00:50:00,151.46
2017-04-01,01:00:00,151.48
2017-04-01,01:10:00,151.48
2017-04-01,01:20:00,151.5
2017-04-01,01:30:00,151.72
2017-04-01,01:40:00,151.74
2017-04-01,01:50:00,151.75
2017-04-01,02:00:00,151.76
2017-04-01,02:10:00,151.78
2017-04-01,02:20:00,151.79
2017-04-01,02:30:00,151.9
2017-04-01,02:40:00,151.9
2017-04-01,02:50:00,151.93
2017-04-01,03:00:00,151.93
2017-04-01,03:10:00,151.93
2017-04-01,03:20:00,152.01
2017-04-01,03:30:00,151.57
2017-04-01,03:40:00,151.58
2017-04-01,03:50:00,151.58
2017-04-01,04:00:00,152.02
2017-04-01,04:10:00,151.6
2017-04-01,04:20:00,151.68
2017-04-01,04:30:00,151.68
2017-04-01,04:40:00,151.9
2017-04-01,04:50:00,151.66
2017-04-01,05:00:00,152.08
2017-04-01,05:10:00,151.84
2017-04-01,05:20:00,152.04
2017-04-01,05:30:00,152.05
2017-04-01,05:40:00,152.02
2017-04-01,05:50:00,152.09
2017-04-01,06:00:00,152.07
2017-04-01,06:10:00,152.09
2017-04-01,06:20:00,152.01
2017-04-01,06:30:00,152.12
2017-04-01,06:40:00,152.2
2017-04-01,06:50:00,151.72
2017-04-01,07:00:00,152
2017-04-01,07:10:00,151.75
2017-04-01,07:20:00,152.19
2017-04-01,07:30:00,151.75
2017-04-01,07:40:00,151.76
2017-04-01,07:50:00,151.76
2017-04-01,08:00:00,151.77
2017-04-01,08:10:00,151.79
2017-04-01,08:20:00,151.78
2017-04-01,08:30:00,151.8
2017-04-01,08:40:00,151.8
2017-04-01,08:50:00,151.8
2017-04-01,09:00:00,151.81
2017-04-01,09:10:00,151.78
2017-04-01,09:20:00,151.8
2017-04-01,09:30:00,151.82
2017-04-01,09:40:00,151.83
2017-04-01,09:50:00,151.83
2017-04-01,10:00:00,151.84
2017-04-01,10:10:00,152.34
2017-04-01,10:20:00,151.87
2017-04-01,10:30:00,151.87
2017-04-01,10:40:00,151.84
2017-04-01,10:50:00,151.83
2017-04-01,11:00:00,151.88
2017-04-01,11:10:00,151.88
2017-04-01,11:20:00,151.88
2017-04-01,11:30:00,151.9
2017-04-01,11:40:00,152
2017-04-01,11:50:00,151.92
2017-04-01,12:00:00,151.92
2017-04-01,12:10:00,151.92
2017-04-01,12:20:00,151.92
2017-04-01,12:30:00,151.94
2017-04-01,12:40:00,151.93
2017-04-01,12:50:00,151.94
2017-04-01,13:00:00,151.93
2017-04-01,13:10:00,151.95
2017-04-01,13:20:00,151.96
2017-04-01,13:30:00,151.97
2017-04-01,13:40:00,151.97
2017-04-01,13:50:00,151.98
2017-04-01,14:00:00,151.93
2017-04-01,14:10:00,151.99
2017-04-01,14:20:00,151.99
2017-04-01,14:30:00,152
2017-04-01,14:40:00,152.01
2017-04-01,14:50:00,151.99
2017-04-01,15:00:00,152.02
2017-04-01,15:10:00,152.02
2017-04-01,15:20:00,152.03
2017-04-01,15:30:00,152.03
2017-04-01,15:40:00,152.02
2017-04-01,15:50:00,152.03
2017-04-01,16:00:00,152.04
2017-04-01,16:10:00,152.04
2017-04-01,16:20:00,152.06
2017-04-01,16:30:00,152.04
2017-04-01,16:40:00,152.06
2017-04-01,16:50:00,152.07
2017-04-01,17:00:00,152.08
2017-04-01,17:10:00,152.08
2017-04-01,17:20:00,152.13
2017-04-01,17:30:00,152.08
2017-04-01,17:40:00,152.1
2017-04-01,17:50:00,152.1
2017-04-01,18:00:00,152.11
2017-04-01,18:10:00,152.11
2017-04-01,18:20:00,152.12
2017-04-01,18:30:00,152.13
2017-04-01,18:40:00,152.13
2017-04-01,18:50:00,152.13
2017-04-01,19:00:00,152.14
2017-04-01,19:10:00,152.15
2017-04-01,19:20:00,152.15
2017-04-01,19:30:00,152.16
2017-04-01,19:40:00,152.17
2017-04-01,19:50:00,152.16
2017-04-01,20:00:00,152.17
2017-04-01,20:10:00,152.17
2017-04-01,20:20:00,152.19
2017-04-01,20:30:00,152.19
2017-04-01,20:40:00,152.2
2017-04-01,20:50:00,152.2
2017-04-01,21:00:00,152.2
2017-04-01,21:10:00,152.21
2017-04-01,21:20:00,152.22
2017-04-01,21:30:00,152.23
2017-04-01,21:40:00,152.24
2017-04-01,21:50:00,152.24
2017-04-01,22:00:00,152.23
2017-04-01,22:10:00,152.24
2017-04-01,22:20:00,152.24
2017-04-01,22:30:00,152.25
2017-04-01,22:40:00,152.25
2017-04-01,22:50:00,152.26
2017-04-01,23:00:00,152.26
2017-04-01,23:10:00,152.26
2017-04-01,23:20:00,152.28
2017-04-01,23:30:00,152.29
2017-04-01,23:40:00,152.28
2017-04-01,23:50:00,152.29
2017-04-02,00:00:00,152.29
2017-04-02,00:10:00,152.29
2017-04-02,00:20:00,152.31
2017-04-02,00:30:00,152.31
2017-04-02,00:40:00,152.31
2017-04-02,00:50:00,152.31
2017-04-02,01:00:00,152.32
2017-04-02,01:10:00,152.31
2017-04-02,01:20:00,152.34
2017-04-02,01:30:00,152.33
2017-04-02,01:40:00,152.35
2017-04-02,01:50:00,152.34
2017-04-02,02:00:00,152.35
2017-04-02,02:10:00,152.35
2017-04-02,02:20:00,152.34
2017-04-02,02:30:00,152.36
2017-04-02,02:40:00,152.74
2017-04-02,02:50:00,152.36
2017-04-02,03:00:00,152.37
2017-04-02,03:10:00,152.36
2017-04-02,03:20:00,152.34
2017-04-02,03:30:00,152.39
2017-04-02,03:40:00,152.39
2017-04-02,03:50:00,152.4
2017-04-02,04:00:00,152.39
2017-04-02,04:10:00,152.41
2017-04-02,04:20:00,152.4
2017-04-02,04:30:00,152.42
2017-04-02,04:40:00,152.4
2017-04-02,04:50:00,152.41
2017-04-02,05:00:00,152.43
2017-04-02,05:10:00,152.43
2017-04-02,05:20:00,152.43
2017-04-02,05:30:00,152.44
2017-04-02,05:40:00,152.43
2017-04-02,05:50:00,152.45
2017-04-02,06:00:00,152.45
2017-04-02,06:10:00,152.45
2017-04-02,06:20:00,152.45
2017-04-02,06:30:00,152.46
2017-04-02,06:40:00,152.47
2017-04-02,06:50:00,152.47
2017-04-02,07:00:00,152.47
2017-04-02,07:10:00,152.47
2017-04-02,07:20:00,152.48
2017-04-02,07:30:00,152.48
2017-04-02,07:40:00,152.49
2017-04-02,07:50:00,152.5
2017-04-02,08:00:00,152.48
2017-04-02,08:10:00,153
2017-04-02,08:20:00,152.52
2017-04-02,08:30:00,152.5
2017-04-02,08:40:00,152.49
2017-04-02,08:50:00,152.5
2017-04-02,09:00:00,152.52
2017-04-02,09:10:00,152.51
2017-04-02,09:20:00,152.52
2017-04-02,09:30:00,152.51
2017-04-02,09:40:00,152.53
2017-04-02,09:50:00,152.54
2017-04-02,10:00:00,152.53
2017-04-02,10:10:00,152.52
2017-04-02,10:20:00,152.52
2017-04-02,10:30:00,152.54
2017-04-02,10:40:00,152.55
2017-04-02,10:50:00,152.55
2017-04-02,11:00:00,152.55
2017-04-02,11:10:00,152.56
2017-04-02,11:20:00,152.55
2017-04-02,11:30:00,152.55
2017-04-02,11:40:00,152.59
2017-04-02,11:50:00,152.56
2017-04-02,12:00:00,152.57
2017-04-02,12:10:00,152.59
2017-04-02,12:20:00,152.58
2017-04-02,12:30:00,152.58
2017-04-02,12:40:00,152.58
2017-04-02,12:50:00,152.59
2017-04-02,13:00:00,153.04
2017-04-02,13:10:00,153.03
2017-04-02,13:20:00,152.59
2017-04-02,13:30:00,152.58
2017-04-02,13:40:00,152.6
2017-04-02,13:50:00,152.59
2017-04-02,14:00:00,153.07
2017-04-02,14:10:00,152.57
2017-04-02,14:20:00,152.6
2017-04-02,14:30:00,152.61
2017-04-02,14:40:00,152.62
2017-04-02,14:50:00,152.63
2017-04-02,15:00:00,152.61
2017-04-02,15:10:00,153.06
2017-04-02,15:20:00,152.63
2017-04-02,15:30:00,152.62
2017-04-02,15:40:00,152.63
2017-04-02,15:50:00,152.62
2017-04-02,16:00:00,152.63
2017-04-02,16:10:00,152.63
2017-04-02,16:20:00,152.64
2017-04-02,16:30:00,152.65
2017-04-02,16:40:00,152.65
2017-04-02,16:50:00,152.64
2017-04-02,17:00:00,152.64
2017-04-02,17:10:00,152.66
2017-04-02,17:20:00,152.67
2017-04-02,17:30:00,153.06
2017-04-02,17:40:00,152.68
2017-04-02,17:50:00,152.65
2017-04-02,18:00:00,152.66
2017-04-02,18:10:00,152.68
2017-04-02,18:20:00,152.68
2017-04-02,18:30:00,152.68
2017-04-02,18:40:00,152.68
2017-04-02,18:50:00,152.68
2017-04-02,19:00:00,152.69
2017-04-02,19:10:00,152.69
2017-04-02,19:20:00,152.7
2017-04-02,19:30:00,152.7
2017-04-02,19:40:00,152.7
2017-04-02,19:50:00,152.71
2017-04-02,20:00:00,152.71
2017-04-02,20:10:00,152.71
2017-04-02,20:20:00,152.71
2017-04-02,20:30:00,152.71
2017-04-02,20:40:00,153.14
2017-04-02,20:50:00,153.14
2017-04-02,21:00:00,152.7
2017-04-02,21:10:00,152.71
2017-04-02,21:20:00,152.72
2017-04-02,21:30:00,152.72
2017-04-02,21:40:00,152.72
2017-04-02,21:50:00,152.72
2017-04-02,22:00:00,152.73
2017-04-02,22:10:00,152.73
2017-04-02,22:20:00,152.73
2017-04-02,22:30:00,152.74
2017-04-02,22:40:00,152.74
2017-04-02,22:50:00,152.74
2017-04-02,23:00:00,152.74
2017-04-02,23:10:00,152.74
2017-04-02,23:20:00,152.74
2017-04-02,23:30:00,152.75
2017-04-02,23:40:00,152.75
2017-04-02,23:50:00,152.75
2017-04-03,00:00:00,152.75
2017-04-03,00:10:00,152.76
2017-04-03,00:20:00,152.76
2017-04-03,00:30:00,152.76
2017-04-03,00:40:00,152.76
2017-04-03,00:50:00,152.77
2017-04-03,01:00:00,152.78
2017-04-03,01:10:00,152.78
2017-04-03,01:20:00,152.77
2017-04-03,01:30:00,152.78
2017-04-03,01:40:00,152.78
2017-04-03,01:50:00,152.78
2017-04-03,02:00:00,152.79
2017-04-03,02:10:00,152.79
2017-04-03,02:20:00,152.79
2017-04-03,02:30:00,152.79
2017-04-03,02:40:00,152.81
2017-04-03,02:50:00,152.8
2017-04-03,03:00:00,152.79
2017-04-03,03:10:00,152.8
2017-04-03,03:20:00,152.8
2017-04-03,03:30:00,152.8
2017-04-03,03:40:00,152.81
2017-04-03,03:50:00,152.81
2017-04-03,04:00:00,152.81
2017-04-03,04:10:00,152.81
2017-04-03,04:20:00,152.81
2017-04-03,04:30:00,152.81
2017-04-03,04:40:00,152.81
2017-04-03,04:50:00,152.81
2017-04-03,05:00:00,152.81
2017-04-03,05:10:00,152.82
2017-04-03,05:20:00,152.82
2017-04-03,05:30:00,153.34
2017-04-03,05:40:00,152.82
2017-04-03,05:50:00,152.82
2017-04-03,06:00:00,152.82
2017-04-03,06:10:00,152.83
2017-04-03,06:20:00,152.83
2017-04-03,06:30:00,152.82
2017-04-03,06:40:00,152.85
2017-04-03,06:50:00,152.84
2017-04-03,07:00:00,153.21
2017-04-03,07:10:00,152.82
2017-04-03,07:20:00,152.83
2017-04-03,07:30:00,152.83
2017-04-03,07:40:00,152.83
2017-04-03,07:50:00,153.23
2017-04-03,08:00:00,152.85
2017-04-03,08:10:00,152.83
2017-04-03,08:20:00,152.85
2017-04-03,08:30:00,152.85
2017-04-03,08:40:00,152.84
2017-04-03,08:50:00,153.38
2017-04-03,09:00:00,152.83
2017-04-03,09:10:00,152.9
2017-04-03,09:20:00,152.87
2017-04-03,09:30:00,152.87
2017-04-03,09:40:00,152.85
2017-04-03,09:50:00,153.27
2017-04-03,10:00:00,152.85
2017-04-03,10:10:00,152.86
2017-04-03,10:20:00,152.83
2017-04-03,10:30:00,152.86
2017-04-03,10:40:00,153.17
2017-04-03,10:50:00,152.88
2017-04-03,11:00:00,152.86
2017-04-03,11:10:00,152.87
2017-04-03,11:20:00,152.86
2017-04-03,11:30:00,152.89
2017-04-03,11:40:00,153.3
2017-04-03,11:50:00,152.86
2017-04-03,12:00:00,152.89
2017-04-03,12:10:00,152.86
2017-04-03,12:20:00,152.86
2017-04-03,12:30:00,152.86
2017-04-03,12:40:00,152.89
2017-04-03,12:50:00,152.88
2017-04-03,13:00:00,152.86
2017-04-03,13:10:00,152.87
2017-04-03,13:20:00,152.87
2017-04-03,13:30:00,152.86
2017-04-03,13:40:00,153.28
2017-04-03,13:50:00,152.86
2017-04-03,14:00:00,152.87
2017-04-03,14:10:00,152.88
2017-04-03,14:20:00,152.87
2017-04-03,14:30:00,152.9
2017-04-03,14:40:00,152.88
2017-04-03,14:50:00,153.15
2017-04-03,15:00:00,153.14
2017-04-03,15:10:00,153.19
2017-04-03,15:20:00,152.88
2017-04-03,15:30:00,152.87
2017-04-03,15:40:00,152.87
2017-04-03,15:50:00,152.88
2017-04-03,16:00:00,152.87
2017-04-03,16:10:00,152.88
2017-04-03,16:20:00,152.88
2017-04-03,16:30:00,152.89
2017-04-03,16:40:00,153.49
2017-04-03,16:50:00,152.89
2017-04-03,17:00:00,152.87
2017-04-03,17:10:00,152.88
2017-04-03,17:20:00,152.86
2017-04-03,17:30:00,152.87
2017-04-03,17:40:00,152.88
2017-04-03,17:50:00,152.88
2017-04-03,18:00:00,152.86
2017-04-03,18:10:00,153.24
2017-04-03,18:20:00,152.89
2017-04-03,18:30:00,152.89
2017-04-03,18:40:00,152.9
2017-04-03,18:50:00,153.29
2017-04-03,19:00:00,152.9
2017-04-03,19:10:00,152.89
2017-04-03,19:20:00,152.89
2017-04-03,19:30:00,152.89
2017-04-03,19:40:00,153.24
2017-04-03,19:50:00,153.24
2017-04-03,20:00:00,153.25
2017-04-03,20:10:00,153.26
2017-04-03,20:20:00,152.9
2017-04-03,20:30:00,153.25
2017-04-03,20:40:00,153.27
2017-04-03,20:50:00,153.28
2017-04-03,21:00:00,153.27
2017-04-03,21:10:00,153.26
2017-04-03,21:20:00,153.25
2017-04-03,21:30:00,153.24
2017-04-03,21:40:00,153.24
2017-04-03,21:50:00,153.24
2017-04-03,22:00:00,153.3
2017-04-03,22:10:00,153.42
2017-04-03,22:20:00,153.33
2017-04-03,22:30:00,153.33
2017-04-03,22:40:00,153.33
2017-04-03,22:50:00,153.29
2017-04-03,23:00:00,153.28
2017-04-03,23:10:00,153.28
2017-04-03,23:20:00,153.3
2017-04-03,23:30:00,153.29
2017-04-03,23:40:00,153.28
2017-04-03,23:50:00,153.25
2017-04-04,00:00:00,152.91
2017-04-04,00:10:00,152.9
2017-04-04,00:20:00,152.91
2017-04-04,00:30:00,152.91
2017-04-04,00:40:00,152.91
2017-04-04,00:50:00,152.91
2017-04-04,01:00:00,152.91
2017-04-04,01:10:00,152.91
2017-04-04,01:20:00,152.91
2017-04-04,01:30:00,152.91
2017-04-04,01:40:00,152.91
2017-04-04,01:50:00,152.92
2017-04-04,02:00:00,152.94
2017-04-04,02:10:00,152.92
2017-04-04,02:20:00,152.92
2017-04-04,02:30:00,152.92
2017-04-04,02:40:00,152.91
2017-04-04,02:50:00,152.92
2017-04-04,03:00:00,152.93
2017-04-04,03:10:00,152.92
2017-04-04,03:20:00,152.92
2017-04-04,03:30:00,152.93
2017-04-04,03:40:00,152.92
2017-04-04,03:50:00,152.92
2017-04-04,04:00:00,152.92
2017-04-04,04:10:00,152.92
2017-04-04,04:20:00,152.92
2017-04-04,04:30:00,152.92
2017-04-04,04:40:00,152.93
2017-04-04,04:50:00,152.93
2017-04-04,05:00:00,152.92
2017-04-04,05:10:00,152.94
2017-04-04,05:20:00,152.92
2017-04-04,05:30:00,152.92
2017-04-04,05:40:00,152.92
2017-04-04,05:50:00,152.91
2017-04-04,06:00:00,152.92
2017-04-04,06:10:00,152.92
2017-04-04,06:20:00,152.91
2017-04-04,06:30:00,152.92
2017-04-04,06:40:00,152.92
2017-04-04,06:50:00,152.92
2017-04-04,07:00:00,152.93
2017-04-04,07:10:00,152.91
2017-04-04,07:20:00,152.92
2017-04-04,07:30:00,152.91
2017-04-04,07:40:00,153.4
2017-04-04,07:50:00,152.93
2017-04-04,08:00:00,153.39
2017-04-04,08:10:00,152.91
2017-04-04,08:20:00,152.91
2017-04-04,08:30:00,153.33
2017-04-04,08:40:00,152.9
2017-04-04,08:50:00,152.93
2017-04-04,09:00:00,152.94
2017-04-04,09:10:00,152.93
2017-04-04,09:20:00,152.93
2017-04-04,09:30:00,152.92
2017-04-04,09:40:00,152.94
2017-04-04,09:50:00,152.92
2017-04-04,10:00:00,153.43
2017-04-04,10:10:00,152.89
2017-04-04,10:20:00,152.93
2017-04-04,10:30:00,152.93
2017-04-04,10:40:00,152.92
2017-04-04,10:50:00,152.92
2017-04-04,11:00:00,152.93
2017-04-04,11:10:00,152.9
2017-04-04,11:20:00,152.91
2017-04-04,11:30:00,152.96
2017-04-04,11:40:00,152.91
2017-04-04,11:50:00,152.91
2017-04-04,12:00:00,152.93
2017-04-04,12:10:00,152.93
2017-04-04,12:20:00,153.32
2017-04-04,12:30:00,153.46
2017-04-04,12:40:00,153.31
2017-04-04,12:50:00,153.54
2017-04-04,13:00:00,152.93
2017-04-04,13:10:00,152.93
2017-04-04,13:20:00,152.93
2017-04-04,13:30:00,152.94
2017-04-04,13:40:00,153.22
2017-04-04,13:50:00,153.35
2017-04-04,14:00:00,152.94
2017-04-04,14:10:00,152.92
2017-04-04,14:20:00,152.92
2017-04-04,14:30:00,152.94
2017-04-04,14:40:00,152.91
2017-04-04,14:50:00,152.92
2017-04-04,15:00:00,152.91
2017-04-04,15:10:00,153.49
2017-04-04,15:20:00,152.9
2017-04-04,15:30:00,153.52
2017-04-04,15:40:00,153.29
2017-04-04,15:50:00,153.31
2017-04-04,16:00:00,152.94
2017-04-04,16:10:00,153.34
2017-04-04,16:20:00,153.31
2017-04-04,16:30:00,152.92
2017-04-04,16:40:00,153.32
2017-04-04,16:50:00,153.27
2017-04-04,17:00:00,153.31
2017-04-04,17:10:00,153.55
2017-04-04,17:20:00,153.45
2017-04-04,17:30:00,153.47
2017-04-04,17:40:00,153.56
2017-04-04,17:50:00,153.26
2017-04-04,18:00:00,153.27
2017-04-04,18:10:00,153.24
2017-04-04,18:20:00,153.22
2017-04-04,18:30:00,153.19
2017-04-04,18:40:00,153.18
2017-04-04,18:50:00,153.16
2017-04-04,19:00:00,153.13
2017-04-04,19:10:00,152.92
2017-04-04,19:20:00,152.92
2017-04-04,19:30:00,152.93
2017-04-04,19:40:00,153.34
2017-04-04,19:50:00,152.95
2017-04-04,20:00:00,153.29
2017-04-04,20:10:00,153.32
2017-04-04,20:20:00,153.32
2017-04-04,20:30:00,153.33
2017-04-04,20:40:00,153.33
2017-04-04,20:50:00,152.96
2017-04-04,21:00:00,152.96
2017-04-04,21:10:00,152.96
2017-04-04,21:20:00,152.97
2017-04-04,21:30:00,152.96
2017-04-04,21:40:00,152.96
2017-04-04,21:50:00,152.97
2017-04-04,22:00:00,152.97
2017-04-04,22:10:00,152.96
2017-04-04,22:20:00,152.96
2017-04-04,22:30:00,152.96
2017-04-04,22:40:00,152.97
2017-04-04,22:50:00,153.48
2017-04-04,23:00:00,152.98
2017-04-04,23:10:00,153.49
2017-04-04,23:20:00,153.49
2017-04-04,23:30:00,153.48
2017-04-04,23:40:00,153.49
2017-04-04,23:50:00,153.5
2017-04-05,00:00:00,153.5
2017-04-05,00:10:00,153.51
2017-04-05,00:20:00,153.5
2017-04-05,00:30:00,153.5
2017-04-05,00:40:00,153.51
2017-04-05,00:50:00,153.51
2017-04-05,01:00:00,153.51
2017-04-05,01:10:00,153.51
2017-04-05,01:20:00,153.5
2017-04-05,01:30:00,153.52
2017-04-05,01:40:00,153.52
2017-04-05,01:50:00,153.51
2017-04-05,02:00:00,153.51
2017-04-05,02:10:00,153.51
2017-04-05,02:20:00,153.51
2017-04-05,02:30:00,153.51
2017-04-05,02:40:00,153.52
2017-04-05,02:50:00,152.97
2017-04-05,03:00:00,152.97
2017-04-05,03:10:00,153.51
2017-04-05,03:20:00,153.52
2017-04-05,03:30:00,153.51
2017-04-05,03:40:00,153.52
2017-04-05,03:50:00,153.5
2017-04-05,04:00:00,153.51
2017-04-05,04:10:00,153.01
2017-04-05,04:20:00,153
2017-04-05,04:30:00,153.01
2017-04-05,04:40:00,153
2017-04-05,04:50:00,153.49
2017-04-05,05:00:00,153
2017-04-05,05:10:00,153
2017-04-05,05:20:00,153
2017-04-05,05:30:00,153
2017-04-05,05:40:00,153
2017-04-05,05:50:00,153.02
2017-04-05,06:00:00,153.02
2017-04-05,06:10:00,153.01
2017-04-05,06:20:00,153.01
2017-04-05,06:30:00,153
2017-04-05,06:40:00,153
2017-04-05,06:50:00,153
2017-04-05,07:00:00,153.01
2017-04-05,07:10:00,153.01
2017-04-05,07:20:00,153
2017-04-05,07:30:00,153
2017-04-05,07:40:00,152.99
2017-04-05,07:50:00,153
2017-04-05,08:00:00,153
2017-04-05,08:10:00,153.01
2017-04-05,08:20:00,152.99
2017-04-05,08:30:00,153
2017-04-05,08:40:00,153
2017-04-05,08:50:00,152.99
2017-04-05,09:00:00,153
2017-04-05,09:10:00,153.46
2017-04-05,09:20:00,153.47
2017-04-05,09:30:00,152.99
2017-04-05,09:40:00,153
2017-04-05,09:50:00,152.99
2017-04-05,10:00:00,152.99
2017-04-05,10:10:00,152.98
2017-04-05,10:20:00,153.45
2017-04-05,10:30:00,153.43
2017-04-05,10:40:00,153.44
2017-04-05,10:50:00,152.99
2017-04-05,11:00:00,152.97
2017-04-05,11:10:00,153.05
2017-04-05,11:20:00,153
2017-04-05,11:30:00,153
2017-04-05,11:40:00,153
2017-04-05,11:50:00,153
2017-04-05,12:00:00,153
2017-04-05,12:10:00,153
2017-04-05,12:20:00,153.01
2017-04-05,12:30:00,152.98
2017-04-05,12:40:00,153
2017-04-05,12:50:00,153.02
2017-04-05,13:00:00,153
2017-04-05,13:10:00,153
2017-04-05,13:20:00,153.44
2017-04-05,13:30:00,153
2017-04-05,13:40:00,153.03
2017-04-05,13:50:00,153
2017-04-05,14:00:00,153.54
2017-04-05,14:10:00,153.02
2017-04-05,14:20:00,153.44
2017-04-05,14:30:00,153.41
2017-04-05,14:40:00,153.49
2017-04-05,14:50:00,152.97
2017-04-05,15:00:00,152.99
2017-04-05,15:10:00,153.41
2017-04-05,15:20:00,153
2017-04-05,15:30:00,153.05
2017-04-05,15:40:00,153.45
2017-04-05,15:50:00,153.06
2017-04-05,16:00:00,153.05
2017-04-05,16:10:00,153.43
2017-04-05,16:20:00,153.41
2017-04-05,16:30:00,153.49
2017-04-05,16:40:00,152.99
2017-04-05,16:50:00,153.47
2017-04-05,17:00:00,153.48
2017-04-05,17:10:00,153.46
2017-04-05,17:20:00,153.49
2017-04-05,17:30:00,153.42
2017-04-05,17:40:00,153.41
2017-04-05,17:50:00,153.4
2017-04-05,18:00:00,153.47
2017-04-05,18:10:00,153.47
2017-04-05,18:20:00,153.47
2017-04-05,18:30:00,153.46
2017-04-05,18:40:00,153.46
2017-04-05,18:50:00,153.01
2017-04-05,19:00:00,153.01
2017-04-05,19:10:00,153.01
2017-04-05,19:20:00,153.01
2017-04-05,19:30:00,153.03
2017-04-05,19:40:00,153.38
2017-04-05,19:50:00,153.42
2017-04-05,20:00:00,153.34
2017-04-05,20:10:00,153.35
2017-04-05,20:20:00,153.4
2017-04-05,20:30:00,153.03
2017-04-05,20:40:00,153.41
2017-04-05,20:50:00,153.5
2017-04-05,21:00:00,153.45
2017-04-05,21:10:00,153.43
2017-04-05,21:20:00,153.02
2017-04-05,21:30:00,153.02
2017-04-05,21:40:00,153.02
2017-04-05,21:50:00,153.37
2017-04-05,22:00:00,153.01
2017-04-05,22:10:00,153.01
2017-04-05,22:20:00,153.04
2017-04-05,22:30:00,153.02
2017-04-05,22:40:00,153.02
2017-04-05,22:50:00,153.02
2017-04-05,23:00:00,153.02
2017-04-05,23:10:00,153.02
2017-04-05,23:20:00,153.02
2017-04-05,23:30:00,153.02
2017-04-05,23:40:00,153.07
2017-04-05,23:50:00,153.03
2017-04-06,00:00:00,153.41
2017-04-06,00:10:00,153.04
2017-04-06,00:20:00,153.04
2017-04-06,00:30:00,153.04
2017-04-06,00:40:00,153.03
2017-04-06,00:50:00,153.03
2017-04-06,01:00:00,153.03
2017-04-06,01:10:00,153.03
2017-04-06,01:20:00,153.03
2017-04-06,01:30:00,153.03
2017-04-06,01:40:00,153.03
2017-04-06,01:50:00,153.04
2017-04-06,02:00:00,153.04
2017-04-06,02:10:00,153.04
2017-04-06,02:20:00,153.04
2017-04-06,02:30:00,153.04
2017-04-06,02:40:00,153.04
2017-04-06,02:50:00,153.04
2017-04-06,03:00:00,153.05
2017-04-06,03:10:00,153.05
2017-04-06,03:20:00,153.05
2017-04-06,03:30:00,153.03
2017-04-06,03:40:00,153.03
2017-04-06,03:50:00,153.48
2017-04-06,04:00:00,153.12
2017-04-06,04:10:00,153.04
2017-04-06,04:20:00,153.03
2017-04-06,04:30:00,153.53
2017-04-06,04:40:00,153.54
2017-04-06,04:50:00,153.2
2017-04-06,05:00:00,153.2
2017-04-06,05:10:00,153.04
2017-04-06,05:20:00,153.04
2017-04-06,05:30:00,153.05
2017-04-06,05:40:00,153.05
2017-04-06,05:50:00,153.06
2017-04-06,06:00:00,153.06
2017-04-06,06:10:00,153.06
2017-04-06,06:20:00,153.06
2017-04-06,06:30:00,153.06
2017-04-06,06:40:00,153.06
2017-04-06,06:50:00,153.07
2017-04-06,07:00:00,153.07
2017-04-06,07:10:00,153.07
2017-04-06,07:20:00,153.5
2017-04-06,07:30:00,153.07
2017-04-06,07:40:00,153.09
2017-04-06,07:50:00,153.07
2017-04-06,08:00:00,153.05
2017-04-06,08:10:00,153.07
2017-04-06,08:20:00,153.09
2017-04-06,08:30:00,153.07
2017-04-06,08:40:00,153.07
2017-04-06,08:50:00,153.07
2017-04-06,09:00:00,153.5
2017-04-06,09:10:00,153.08
2017-04-06,09:20:00,153.07
2017-04-06,09:30:00,153.07
2017-04-06,09:40:00,153.07
2017-04-06,09:50:00,153.07
2017-04-06,10:00:00,153.09
2017-04-06,10:10:00,153.07
2017-04-06,10:20:00,153.09
2017-04-06,10:30:00,153.44
2017-04-06,10:40:00,153.09
2017-04-06,10:50:00,153.08
2017-04-06,11:00:00,153.1
2017-04-06,11:10:00,153.09
2017-04-06,11:20:00,153.09
2017-04-06,11:30:00,153.1
2017-04-06,11:40:00,153.09
2017-04-06,11:50:00,153.09
2017-04-06,12:00:00,153.09
2017-04-06,12:10:00,153.1
2017-04-06,12:20:00,153.09
2017-04-06,12:30:00,153.5
2017-04-06,12:40:00,153.09
2017-04-06,12:50:00,153.12
2017-04-06,13:00:00,153.11
2017-04-06,13:10:00,153.09
2017-04-06,13:20:00,153.1
2017-04-06,13:30:00,153.11
2017-04-06,13:40:00,153.11
2017-04-06,13:50:00,153.11
2017-04-06,14:00:00,153.11
2017-04-06,14:10:00,153.51
2017-04-06,14:20:00,153.1
2017-04-06,14:30:00,153.09
2017-04-06,14:40:00,153.11
2017-04-06,14:50:00,153.11
2017-04-06,15:00:00,153.1
2017-04-06,15:10:00,153.09
2017-04-06,15:20:00,153.1
2017-04-06,15:30:00,153.11
2017-04-06,15:40:00,153.1
2017-04-06,15:50:00,153.1
2017-04-06,16:00:00,153.12
2017-04-06,16:10:00,153.12
2017-04-06,16:20:00,153.11
2017-04-06,16:30:00,153.11
2017-04-06,16:40:00,153.11
2017-04-06,16:50:00,153.11
2017-04-06,17:00:00,153.11
2017-04-06,17:10:00,153.11
2017-04-06,17:20:00,153.11
2017-04-06,17:30:00,153.12
2017-04-06,17:40:00,153.12
2017-04-06,17:50:00,153.12
2017-04-06,18:00:00,153.12
2017-04-06,18:10:00,153.12
2017-04-06,18:20:00,153.12
2017-04-06,18:30:00,153.12
2017-04-06,18:40:00,153.12
2017-04-06,18:50:00,153.12
2017-04-06,19:00:00,153.12
2017-04-06,19:10:00,153.13
2017-04-06,19:20:00,153.13
2017-04-06,19:30:00,153.13
2017-04-06,19:40:00,153.13
2017-04-06,19:50:00,153.13
2017-04-06,20:00:00,153.13
2017-04-06,20:10:00,153.13
2017-04-06,20:20:00,153.13
2017-04-06,20:30:00,153.13
2017-04-06,20:40:00,153.13
2017-04-06,20:50:00,153.14
2017-04-06,21:00:00,153.14
2017-04-06,21:10:00,153.14
2017-04-06,21:20:00,153.13
2017-04-06,21:30:00,153.14
2017-04-06,21:40:00,153.14
2017-04-06,21:50:00,153.14
2017-04-06,22:00:00,153.14
2017-04-06,22:10:00,153.14
2017-04-06,22:20:00,153.14
2017-04-06,22:30:00,153.14
2017-04-06,22:40:00,153.14
2017-04-06,22:50:00,153.14
2017-04-06,23:00:00,153.14
2017-04-06,23:10:00,153.14
2017-04-06,23:20:00,153.14
2017-04-06,23:30:00,153.14
2017-04-06,23:40:00,153.14
2017-04-06,23:50:00,153.15
2017-04-07,00:00:00,153.14
2017-04-07,00:10:00,153.14
2017-04-07,00:20:00,153.15
2017-04-07,00:30:00,153.15
2017-04-07,00:40:00,153.15
2017-04-07,00:50:00,153.15
2017-04-07,01:00:00,153.15
2017-04-07,01:10:00,153.15
2017-04-07,01:20:00,153.16
2017-04-07,01:30:00,153.16
2017-04-07,01:40:00,153.15
2017-04-07,01:50:00,153.16
2017-04-07,02:00:00,153.16
2017-04-07,02:10:00,153.16
2017-04-07,02:20:00,153.16
2017-04-07,02:30:00,153.16
2017-04-07,02:40:00,153.17
2017-04-07,02:50:00,153.16
2017-04-07,03:00:00,153.16
2017-04-07,03:10:00,153.16
2017-04-07,03:20:00,153.16
2017-04-07,03:30:00,153.16
2017-04-07,03:40:00,153.16
2017-04-07,03:50:00,153.16
2017-04-07,04:00:00,153.15
2017-04-07,04:10:00,153.15
2017-04-07,04:20:00,153.16
2017-04-07,04:30:00,153.16
2017-04-07,04:40:00,153.16
2017-04-07,04:50:00,153.15